Location: New Frontier Mobile Home Park
(32.8448°N, 116.9675°W)
Time: 23:14:38
(UTC+00:00)

COBE Rocket - Pass Details

Date: 14 July 2020
Orbit: 679 x 783 km, 97.1° (Epoch: 05 August)

Event Time Altitude Azimuth Distance (km) Brightness Sun altitude
Exits shadow 10:41:20 55° 207° (SSW) 900 4.0 -22.5°
Maximum altitude 10:42:14 67° 260° (W) 811 3.9 -22.4°
Drops below altitude 10° 10:47:10 10° 343° (NNW) 2,245 6.8 -21.7°
Sets 10:49:27 0° 346° (NNW) 3,154 7.6 -21.3°
